CAPE
0 0 0 0 0 1 0 0 0 0 0 0 0 0 0 0 0 0 0 0 0 0 0 0 0 0 0 0 0 0 0 0 0 0 0 0 0 0 0 0 0 0 0 7 544
0 0 1 1 0 1 0 0 0 0 0 0 0 0 0 0 0 0 0 0 0 0 0 0 0 0 0 0 0 0 0 0 0 0 0 0 0 0 0 0 0 0 7 89 196
7 4 6 3 0 0 0 0 0 0 0 0 0 0 0 0 0 0 0 0 0 0 0 0 0 0 0 0 0 0 0 0 0 0 0 0 0 0 0 0 0 0 1 13 283
0 1 0 0 0 1 0 0 0 0 0 0 0 1 0 0 0 0 0 0 0 0 0 0 0 0 0 0 0 0 0 0 0 0 0 0 0 0 0 0 0 0 0 0 19
0 5 4 2 3 1 0 0 0 0 0 0 0 3 0 0 0 0 0 0 0 0 0 0 0 0 0 0 0 0 0 0 0 0 0 0 0 0 0 0 0 0 0 14 42
3 2 2 12 1 0 0 0 0 0 0 0 0 3 0 0 0 0 0 0 0 0 0 0 0 0 0 0 0 0 0 0 0 0 0 0 0 0 0 0 0 0 1 71 156
7 11 3 0 0 0 0 0 0 0 0 0 0 1 0 0 0 0 0 0 0 0 0 0 0 0 0 0 0 0 0 0 0 0 0 0 0 0 0 0 0 0 0 21 208
8 11 8 0 0 0 0 0 0 0 0 0 0 0 0 0 0 0 0 0 0 0 0 0 0 0 0 0 0 0 0 0 0 0 0 0 0 0 0 0 0 0 0 25 156
5 4 8 0 0 0 0 0 0 0 0 0 0 0 0 0 0 0 0 0 0 0 0 0 0 0 0 0 0 0 0 0 0 0 0 0 0 0 0 0 0 0 11 16 113
7 0 5 0 0 0 0 0 0 0 0 0 0 0 0 0 0 0 0 0 0 0 0 0 0 0 0 0 0 0 0 0 0 0 0 0 0 0 0 0 0 0 2 41 131
2 0 4 0 0 0 0 0 0 0 0 0 0 0 0 0 0 0 0 0 0 0 0 0 0 0 0 0 0 0 0 0 0 0 0 0 0 0 0 0 4 0 0 47 150
8 6 5 0 0 0 0 1 1 0 0 0 0 0 0 0 0 0 0 0 0 0 3 0 0 0 0 0 0 0 0 0 0 0 0 0 0 0 0 0 1 4 2 15 167
7 12 6 0 0 0 0 4 0 9 0 0 0 0 0 0 0 0 0 0 0 7 8 7 0 0 0 0 0 0 0 0 0 0 0 0 0 0 0 0 0 1 0 14 119
6 8 6 0 0 0 0 9 10 8 0 0 0 0 0 0 0 0 0 0 1 0 10 6 1 0 0 0 0 0 0 0 0 0 0 0 0 0 0 0 0 0 0 0 27
11 8 4 1 0 0 0 6 14 6 0 0 0 0 0 0 0 0 0 0 1 2 3 0 0 1 0 0 0 0 0 0 0 0 0 0 0 0 0 0 0 0 0 0 0
11 20 23 0 1 0 13 3 12 1 0 0 0 0 0 0 0 0 0 0 0 0 10 0 0 0 0 0 0 0 0 0 0 0 0 0 0 0 0 0 0 1 0 0 0
8 18 12 6 0 0 0 14 6 0 0 0 0 0 0 0 0 0 0 0 0 0 0 0 0 0 0 0 0 0 0 0 0 0 0 0 0 0 0 0 0 0 0 0 0
1 3 7 5 0 2 9 14 3 0 0 0 0 0 0 0 0 23 0 0 0 2 5 0 0 0 0 0 0 0 0 0 3 0 0 0 0 0 0 0 0 0 0 2 0
9 2 15 13 7 9 19 4 0 0 0 0 0 0 0 0 0 0 25 1 0 0 0 1 0 2 0 0 0 0 0 0 0 0 1 0 0 2 0 0 0 0 0 0 0
9 12 12 17 22 10 4 2 0 0 0 0 0 0 0 0 14 30 41 0 0 0 0 1 0 0 0 0 0 0 0 0 1 0 0 66 2 8 0 0 0 0 2 2 5
10 21 0 4 13 18 7 6 0 0 0 0 0 0 0 0 3 12 31 1 0 0 0 1 1 0 0 4 0 0 0 0 0 0 4 3 37 0 0 0 0 0 0 0 1
8 4 0 26 14 11 3 8 1 0 0 0 0 0 0 0 6 16 25 8 0 0 0 2 2 0 0 0 1 1 0 0 0 0 0 0 13 0 0 0 0 0 0 0 0
9 1 0 25 5 6 8 6 6 4 0 0 0 0 0 0 0 9 16 6 0 0 0 0 0 0 0 0 0 2 0 0 0 1 1 1 0 0 0 0 0 0 0 3 0
5 1 0 49 8 6 2 15 11 13 0 2 2 3 8 1 1 18 28 20 0 0 0 0 1 0 0 0 0 0 0 0 1 0 0 0 16 0 0 0 0 0 0 0 3
5 0 4 2 7 7 2 4 12 13 6 3 3 1 8 45 23 31 11 0 0 0 0 0 0 5 1 0 0 3 0 0 0 0 0 0 0 0 0 0 0 0 0 0 0
6 3 1 1 7 7 0 0 4 5 15 0 18 7 5 17 25 11 26 1 15 8 0 2 0 0 0 0 0 1 1 0 0 0 19 5 0 0 0 0 4 5 0 0 0
6 0 6 2 4 1 7 1 1 1 0 6 2 19 22 26 41 32 39 20 42 12 11 0 0 0 0 0 0 0 0 0 0 0 0 0 0 0 0 0 0 0 0 0 0
CIN
-0 -0 -0 -0 -0 -0 -0 -0 -0 -0 -0 -0 -0 -0 -0 -0 -0 -0 -0 -0 -0 -0 -0 -0 -0 -0 -0 -0 -0 -0 -0 -0 -0 -0 -0 -0 -0 -0 -0 -0 -0 -0 -0 -11 -74
-0 -0 -0 -0 -0 -0 -0 -0 -0 -0 -0 -0 -0 -0 -0 -0 -0 -0 -0 -0 -0 -0 -0 -0 -0 -0 -0 -0 -0 -0 -0 -0 -0 -0 -0 -0 -0 -0 -0 -0 -0 -0 -9 -54 -43
-0 -0 -0 -0 -0 -0 -0 -0 -0 -0 -0 -0 -0 -0 -0 -0 -0 -0 -0 -0 -0 -0 -0 -0 -0 -0 -0 -0 -0 -0 -0 -0 -0 -0 -0 -0 -0 -0 -0 -0 -0 -0 -2 -10 -16
-0 -1 -0 -0 -0 -0 -0 -0 -0 -0 -0 -0 -0 -0 -0 -0 -0 -0 -0 -0 -0 -0 -0 -0 -0 -0 -0 -0 -0 -0 -0 -0 -0 -0 -0 -0 -0 -0 -0 -0 -0 -0 -0 -0 -42
-0 -4 -0 -0 -0 -0 -0 -0 -0 -0 -0 -0 -0 -0 -0 -0 -0 -0 -0 -0 -0 -0 -0 -0 -0 -0 -0 -0 -0 -0 -0 -0 -0 -0 -0 -0 -0 -0 -0 -0 -0 -0 -0 -32 -58
-5 -7 -5 -0 -0 -0 -0 -0 -0 -0 -0 -0 -0 -0 -0 -0 -0 -0 -0 -0 -0 -0 -0 -0 -0 -0 -0 -0 -0 -0 -0 -0 -0 -0 -0 -0 -0 -0 -0 -0 -0 -0 -4 -58 -68
-4 -3 -3 -0 -0 -0 -0 -0 -0 -0 -0 -0 -0 -0 -0 -0 -0 -0 -0 -0 -0 -0 -0 -0 -0 -0 -0 -0 -0 -0 -0 -0 -0 -0 -0 -0 -0 -0 -0 -0 -0 -0 -0 -23 -52
-3 -4 -1 -0 -0 -0 -0 -0 -0 -0 -0 -0 -0 -0 -0 -0 -0 -0 -0 -0 -0 -0 -0 -0 -0 -0 -0 -0 -0 -0 -0 -0 -0 -0 -0 -0 -0 -0 -0 -0 -0 -0 -0 -24 -45
-2 -4 -2 -0 -0 -0 -0 -0 -0 -0 -0 -0 -0 -0 -0 -0 -0 -0 -0 -0 -0 -0 -0 -0 -0 -0 -0 -0 -0 -0 -0 -0 -0 -0 -0 -0 -0 -0 -0 -0 -0 -0 -4 -7 -34
-3 -0 -3 -0 -0 -0 -0 -0 -0 -0 -0 -0 -0 -0 -0 -0 -0 -0 -0 -0 -0 -0 -0 -0 -0 -0 -0 -0 -0 -0 -0 -0 -0 -0 -0 -0 -0 -0 -0 -1 -0 -0 -1 -6 -22
-4 -0 -4 -0 -0 -0 -0 -0 -0 -0 -0 -0 -0 -0 -0 -0 -0 -0 -0 -0 -0 -0 -0 -0 -0 -0 -0 -0 -0 -0 -0 -0 -0 -0 -0 -0 -0 -0 -0 -0 -6 -0 -0 -6 -13
-6 -4 -3 -0 -0 -0 -0 -3 -0 -0 -0 -0 -0 -0 -0 -0 -0 -0 -0 -0 -0 -0 -2 -0 -0 -0 -0 -0 -0 -0 -0 -0 -0 -0 -0 -0 -0 -0 -0 -0 -2 -9 -10 -6 -13
-5 -4 -5 -0 -0 -0 -0 -1 -0 -1 -0 -0 -0 -0 -0 -0 -0 -0 -0 -0 -0 -1 -2 -1 -0 -0 -0 -0 -4 -0 -0 -0 -0 -0 -1 -0 -0 -0 -0 -0 -0 -4 -1 -4 -17
-9 -5 -6 -0 -0 -0 -0 -1 -1 -7 -0 -0 -0 -0 -0 -0 -0 -0 -0 -0 -1 -0 -1 -0 -1 -0 -0 -0 -0 -0 -0 -0 -1 -0 -0 -5 -0 -0 -0 -0 -0 -0 -0 -0 -5
-7 -8 -7 -20 -0 -0 -0 -1 -1 -3 -0 -0 -0 -0 -0 -0 -0 -0 -0 -0 -1 -3 -3 -0 -0 -2 -0 -0 -0 -0 -0 -0 -0 -0 -0 -0 -0 -0 -0 -0 -0 -0 -0 -0 -0
-7 -10 -9 -0 -1 -0 -1 -7 -6 -0 -0 -0 -0 -0 -0 -0 -0 -0 -0 -0 -0 -0 -3 -0 -0 -0 -0 -0 -0 -0 -0 -0 -0 -0 -0 -0 -0 -0 -0 -0 -0 -2 -0 -0 -0
-5 -9 -10 -1 -0 -9 -4 -2 -2 -0 -0 -0 -0 -0 -0 -0 -0 -4 -0 -0 -0 -0 -0 -0 -0 -0 -0 -0 -0 -0 -0 -0 -2 -0 -0 -0 -0 -0 -0 -0 -0 -0 -0 -0 -0
-12 -6 -4 -1 -0 -0 -5 -1 -0 -0 -0 -0 -0 -0 -0 -0 -0 -3 -0 -0 -0 -2 -1 -0 -0 -0 -0 -0 -0 -0 -0 -0 -6 -0 -0 -0 -0 -0 -0 -0 -0 -0 -0 -3 -0
-11 -1 -1 -2 -6 -10 -2 -0 -0 -0 -0 -0 -0 -0 -0 -0 -0 -0 -9 -6 -0 -0 -0 -1 -2 -6 -0 -0 -0 -0 -0 -0 -0 -0 -7 -4 -0 -15 -0 -0 -0 -0 -0 -0 -0
-1 -1 -2 -1 -5 -3 -4 -0 -0 -0 -0 -0 -0 -0 -0 -0 -5 -2 -4 -0 -0 -0 -0 -1 -0 -1 -0 -0 -0 -0 -0 -0 -0 -0 -0 -3 -4 -13 -0 -0 -0 -0 -1 -2 -3
-0 -0 -0 -9 -2 -0 -1 -0 -0 -0 -0 -0 -0 -0 -0 -0 -3 -3 -4 -0 -1 -0 -0 -1 -0 -0 -0 -0 -0 -0 -0 -0 -0 -0 -3 -29 -16 -0 -0 -0 -0 -0 -0 -0 -4
-0 -0 -0 -5 -0 -0 -1 -2 -7 -0 -1 -0 -0 -0 -0 -0 -3 -5 -3 -31 -0 -0 -0 -1 -0 -0 -0 -0 -3 -0 -0 -0 -0 -0 -0 -0 -4 -0 -0 -0 -0 -0 -0 -0 -0
-0 -1 -0 -60 -0 -0 -1 -3 -3 -6 -0 -0 -0 -0 -0 -0 -0 -6 -9 -5 -0 -0 -0 -0 -0 -0 -0 -0 -2 -1 -0 -0 -0 -4 -0 -8 -0 -0 -0 -0 -0 -0 -2 -4 -3
-3 -1 -1 -0 -1 -7 -4 -2 -4 -4 -0 -4 -4 -6 -6 -2 -3 -10 -10 -21 -0 -0 -0 -0 -0 -0 -0 -0 -0 -1 -0 -0 -0 -0 -1 -0 -17 -0 -0 -0 -0 -0 -0 -0 -29
-0 -0 -17 -0 -1 -1 -2 -10 -5 -3 -3 -3 -5 -7 -6 -3 -5 -4 -3 -7 -0 -0 -0 -0 -0 -4 -0 -0 -0 -0 -0 -0 -0 -0 -1 -0 -0 -0 -0 -0 -0 -0 -0 -0 -0
-0 -1 -1 -0 -10 -2 -1 -0 -3 -5 -5 -1 -2 -6 -7 -4 -4 -3 -4 -27 -10 -15 -0 -1 -0 -0 -0 -0 -0 -0 -3 -0 -0 -0 -2 -4 -0 -0 -0 -0 -7 -43 -0 -0 -0
-1 -3 -1 -1 -1 -3 -2 -1 -1 -4 -11 -25 -26 -10 -8 -10 -20 -9 -5 -26 -25 -6 -3 -0 -0 -0 -0 -0 -0 -0 -0 -0 -0 -0 -7 -12 -0 -0 -0 -0 -6 -0 -0 -0 -0
Wind_Speed
30 31 31 32 32 32 33 33 34 35 36 36 37 39 41 43 45 40 28 25 24 21 22 22 17 16 18 19 18 16 22 21 22 21 20 20 12 13 20 19 20 19 10 11 11
31 31 32 32 32 34 34 34 35 36 36 37 38 40 40 41 43 41 23 21 23 22 23 21 18 16 19 22 21 22 25 22 23 35 35 28 21 11 10 16 15 15 10 10 13
32 32 32 32 33 34 35 36 36 37 38 38 38 39 40 41 36 17 15 19 23 21 19 19 21 18 19 23 23 25 27 27 33 33 33 26 33 15 17 20 19 18 17 15 11
33 34 34 34 35 35 36 37 37 38 38 38 38 39 40 31 26 20 19 22 22 18 15 18 21 21 23 24 26 31 32 30 36 40 41 30 24 21 25 29 27 17 15 16 16
33 34 35 35 36 37 37 38 39 39 39 38 37 37 32 25 23 24 22 22 19 17 17 17 20 23 26 27 31 33 35 36 41 40 37 40 18 22 21 27 23 18 13 15 15
34 34 35 36 37 37 38 39 41 41 40 38 36 33 27 28 21 25 26 23 23 22 18 16 18 25 34 38 35 39 39 44 43 38 40 39 13 24 18 23 12 10 9 11 9
36 36 36 37 38 39 40 41 42 42 41 38 33 27 23 22 26 39 36 25 21 25 25 21 21 28 32 38 40 41 47 44 44 33 38 42 29 15 36 11 9 6 8 8 8
36 37 37 37 39 40 42 43 43 42 40 35 26 23 27 25 28 28 27 21 11 17 21 26 31 33 37 40 41 45 41 45 44 39 40 24 40 38 25 15 9 4 4 4 7
36 37 37 38 39 41 44 45 44 40 33 26 22 19 29 20 18 20 20 20 20 15 14 22 24 29 33 42 41 38 44 41 41 40 38 16 18 19 19 16 11 1 2 1 5
36 37 37 38 39 41 44 46 42 35 25 19 19 25 19 19 23 27 22 23 19 16 18 21 22 28 38 33 38 39 38 41 41 36 20 26 25 24 30 10 4 3 2 4 1
36 37 36 37 39 40 40 35 27 24 23 26 25 24 35 29 38 28 24 19 19 20 21 22 23 37 32 35 42 42 41 42 39 32 31 13 25 29 20 5 5 2 1 4 3
35 35 35 35 37 38 35 28 25 27 38 34 29 29 29 29 31 26 22 22 21 26 21 25 30 30 37 41 36 42 45 45 40 31 27 31 29 32 31 20 5 7 3 5 6
34 34 34 34 35 31 24 29 28 29 32 32 20 21 20 19 23 25 15 19 25 27 24 28 39 33 43 49 45 44 47 46 43 37 35 27 37 37 38 28 8 6 1 5 8
33 33 32 33 29 28 26 21 27 24 32 24 17 17 15 19 20 21 9 14 20 26 24 31 35 35 43 50 44 51 45 46 44 41 39 33 37 34 14 11 9 13 3 1 5
30 31 30 27 30 27 29 29 26 22 34 12 14 12 15 18 24 16 10 11 19 20 18 26 28 34 49 46 41 50 40 42 41 42 40 40 35 31 27 28 9 12 8 7 5
30 31 29 29 24 25 27 27 23 24 32 16 13 15 16 16 18 16 13 14 17 23 19 33 28 32 38 41 40 42 41 41 39 40 45 40 38 35 32 32 12 3 3 7 6
30 31 28 28 28 27 26 22 24 28 17 19 16 16 19 24 26 14 16 14 21 25 29 36 45 40 39 41 37 43 34 31 33 38 42 34 33 34 29 14 9 12 9 3 5
31 31 30 29 26 26 23 21 31 24 20 18 15 23 28 30 27 18 18 22 16 22 32 31 31 35 34 40 36 39 40 30 25 26 32 34 30 39 16 7 7 10 12 2 1
32 32 31 28 24 22 22 28 26 23 28 28 24 26 30 25 18 25 21 27 22 13 26 29 29 21 30 33 32 38 47 48 29 26 25 27 27 18 11 8 8 9 9 13 5
32 33 35 27 19 23 26 31 24 27 27 23 23 25 28 25 20 22 21 19 20 22 16 27 32 27 29 32 43 45 40 38 32 29 26 22 17 21 9 9 7 9 11 13 8
29 30 29 18 16 25 33 27 27 36 31 26 27 29 31 29 28 27 23 21 20 22 20 28 29 25 19 31 42 38 38 38 34 31 20 16 18 8 19 3 2 6 12 13 13
27 29 24 9 23 27 32 30 35 32 27 28 30 31 33 32 31 30 30 21 16 21 24 26 27 35 40 36 38 38 44 37 35 33 33 27 21 17 14 9 5 9 11 12 13
26 30 29 18 25 30 31 35 37 36 32 29 32 28 30 34 34 30 32 16 17 20 23 25 28 32 33 29 33 37 40 43 36 30 34 28 22 16 7 8 9 10 14 14 11
24 25 31 24 30 31 31 33 34 31 33 31 30 31 31 31 31 28 23 17 18 20 18 23 29 30 38 28 25 33 32 37 35 28 22 25 22 16 19 15 14 12 16 18 15
25 27 21 26 31 34 36 26 31 31 24 24 29 31 31 32 31 36 34 30 21 19 21 21 30 28 34 33 32 30 36 36 41 38 30 23 23 16 15 23 17 16 17 19 21
29 27 29 27 27 32 33 36 33 27 29 26 26 25 27 33 31 33 33 31 30 22 23 21 29 30 33 34 31 31 29 26 28 30 35 30 24 22 13 16 14 16 16 18 20
33 33 30 28 29 30 27 32 32 31 27 28 22 29 28 29 26 25 28 26 31 30 26 25 24 24 27 27 29 27 22 25 26 25 23 28 19 23 17 16 14 16 18 20 21
Wind_Direction
325 323 322 321 320 318 318 317 316 316 315 315 313 316 311 306 303 303 311 309 310 310 312 305 299 279 277 273 272 275 280 282 291 298 308 316 320 331 323 319 326 330 333 334 352
324 321 320 321 319 315 315 314 313 313 314 313 315 315 315 314 305 299 310 318 316 308 301 297 288 277 270 271 269 265 272 277 289 283 294 304 314 328 326 322 330 340 347 4 348
323 321 319 318 317 314 313 311 311 310 310 313 314 315 315 314 323 342 343 330 322 321 296 286 284 276 267 270 266 266 264 279 279 279 301 302 295 315 316 315 325 331 341 345 342
316 318 317 316 314 313 313 312 312 310 312 314 315 315 314 323 323 341 343 337 329 325 309 288 277 268 267 266 267 269 271 274 275 274 277 298 300 305 304 303 314 325 331 332 327
318 317 315 316 313 311 312 311 310 310 311 315 317 319 325 322 312 320 326 330 330 327 309 288 274 272 268 270 271 268 271 272 268 272 280 273 300 301 302 303 314 323 342 335 328
317 316 316 313 311 310 310 309 307 308 309 314 317 321 322 314 324 325 322 322 318 315 311 290 274 276 273 268 269 269 269 265 264 272 271 271 283 297 297 303 234 313 333 339 338
314 313 313 312 309 308 308 307 305 306 309 313 317 319 314 307 314 300 302 312 316 308 307 296 283 275 272 269 267 266 266 266 261 274 272 250 229 282 281 281 243 252 322 335 337
312 310 310 310 309 308 307 306 304 305 309 315 322 319 312 319 314 311 316 314 295 309 302 293 283 279 270 268 266 262 266 263 257 264 264 284 241 271 248 219 224 316 317 329 336
311 311 310 310 308 307 304 302 298 300 316 323 321 322 315 332 327 327 328 324 315 307 316 296 281 276 271 254 260 262 258 262 259 257 264 222 220 295 239 304 318 225 211 322 342
309 309 309 310 310 308 303 299 293 308 318 323 318 316 315 324 328 320 326 325 326 313 313 292 276 267 259 260 255 254 257 258 254 260 267 272 282 286 274 303 297 192 235 161 35
309 309 310 311 310 308 310 317 319 315 315 305 310 305 301 304 307 314 317 321 322 316 301 288 264 251 254 257 255 254 256 254 251 264 269 266 280 281 290 266 237 197 173 173 137
311 311 311 312 310 308 309 315 321 316 303 305 300 300 302 303 303 299 312 312 309 305 306 287 254 253 262 257 259 255 250 248 255 264 275 263 276 279 279 291 248 188 158 166 138
310 310 312 312 310 309 314 312 318 322 306 311 312 310 316 320 308 309 294 307 305 302 307 284 270 260 253 247 251 250 246 244 253 260 267 273 267 271 264 280 223 209 274 152 151
309 310 311 311 309 311 312 324 321 331 305 306 311 322 325 327 320 327 303 302 316 307 316 291 270 258 246 248 249 243 245 243 252 255 258 260 269 276 288 281 235 199 192 198 147
307 308 309 310 303 305 309 314 316 322 297 312 317 343 329 321 323 328 337 300 306 317 327 300 280 250 238 244 252 243 248 256 256 254 257 252 267 275 280 280 272 193 193 170 159
301 303 304 302 300 301 305 307 309 300 292 304 316 318 318 314 317 327 322 315 323 310 311 290 276 260 249 253 259 247 247 255 255 255 249 248 257 267 270 277 282 190 313 161 144
296 297 295 295 289 304 302 299 288 284 308 298 306 315 311 310 311 305 310 299 304 307 305 291 255 253 255 255 252 236 242 251 253 251 249 253 260 260 268 295 315 295 314 81 133
294 293 290 286 287 293 291 285 275 289 284 307 308 306 301 302 303 307 296 297 300 302 301 287 264 248 254 246 245 247 233 244 253 259 259 251 260 250 274 294 299 318 303 14 65
291 288 283 281 280 279 276 265 277 278 284 290 295 298 299 301 301 301 290 291 300 295 298 290 269 278 252 252 248 244 231 231 254 274 271 259 255 278 280 291 319 315 300 295 309
288 283 278 276 271 265 265 263 269 279 288 295 287 295 292 291 308 303 304 310 303 307 301 289 273 275 262 253 242 242 239 240 247 260 263 266 243 266 260 276 296 312 306 306 318
283 280 278 265 257 257 257 259 270 268 279 283 284 284 283 286 290 294 297 309 313 308 311 283 275 269 278 251 240 240 238 243 250 253 264 267 252 315 262 322 339 344 330 311 313
275 270 280 215 248 259 258 261 263 272 280 280 281 280 279 282 285 287 290 297 319 318 299 287 280 261 253 261 249 245 239 241 246 244 253 261 263 277 273 295 334 340 344 346 321
264 263 264 263 256 255 261 261 262 266 272 277 277 280 281 278 280 287 285 300 310 312 304 292 272 264 256 257 251 244 238 240 248 258 249 258 259 272 300 306 314 326 332 341 343
269 261 254 259 259 259 258 261 263 268 270 276 278 281 281 279 277 283 290 297 305 308 311 296 267 261 243 257 276 243 243 240 245 252 256 255 262 266 259 282 300 306 313 326 333
256 251 264 257 255 255 258 271 265 266 272 277 278 276 279 277 277 275 274 287 295 298 296 287 263 270 258 261 265 260 243 236 241 246 253 255 255 254 293 279 298 301 306 304 307
245 250 256 263 262 256 258 259 264 275 272 272 278 280 278 277 281 276 277 279 278 284 281 284 262 272 258 261 259 259 250 247 250 252 253 259 258 279 277 298 315 315 317 306 312
244 249 259 260 262 261 266 261 265 269 275 277 289 283 286 289 286 289 283 282 275 265 269 268 271 269 259 266 254 255 252 248 256 259 262 259 267 267 280 297 309 317 317 314 308